This demonstration page uses our WeatherBlox Daily Observations layout. Learn more.

Left ArrowRight Arrow

39.29038, -76.61219

Hourly Observations for July 6, 2022

Temp ( °F °C ) Dew Point ( °F °C ) Humidity (%) Winds ( mph kmh ) Pressure ( in mb ) Visibility ( mi km ) Precip ( " mm )
12:54 am 00:54 Mostly Clear 75 23.9 74 23.3 96 96 W 3 6 29.85 1011 7 11 0.00 0.00
1:54 am 01:54 Partly Cloudy 76 24.4 72 22.2 88 88 W 7 11 29.86 1011 10 16 0.00 0.00
2:54 am 02:54 Partly Cloudy 74 23.3 70 21.1 88 88 W 7 11 29.86 1011 10 16 0.00 0.00
3:54 am 03:54 Mostly Clear 74 23.3 69 20.6 85 85 W 8 13 29.85 1011 10 16 0.00 0.00
4:54 am 04:54 Partly Cloudy 73 22.8 69 20.6 87 87 W 7 11 29.85 1011 10 16 0.00 0.00
5:54 am 05:54 Mostly Cloudy 73 22.8 68 20 84 84 W 9 15 29.87 1011 10 16 0.00 0.00
6:54 am 06:54 Mostly Cloudy 75 23.9 69 20.6 82 82 W 8 13 29.87 1011 10 16 0.00 0.00
7:54 am 07:54 Mostly Cloudy 77 25 69 20.6 77 77 W 6 9 29.88 1012 10 16 0.00 0.00
8:54 am 08:54 Mostly Cloudy 80 26.7 69 20.6 69 69 W 8 13 29.88 1012 10 16 0.00 0.00
9:54 am 09:54 Mostly Cloudy 83 28.3 70 21.1 65 65 W 9 15 29.87 1012 10 16 0.00 0.00
10:54 am 10:54 Mostly Cloudy 88 31.1 69 20.6 54 54 WNW 7 11 29.87 1011 10 16 0.00 0.00
11:54 am 11:54 Mostly Cloudy 87 30.6 69 20.6 55 55 WNW 9 15 29.88 1012 10 16 0.00 0.00
12:54 pm 12:54 Mostly Cloudy 90 32.2 70 21.1 52 52 WNW 12 19 29.88 1012 10 16 0.00 0.00
1:54 pm 13:54 Mostly Cloudy 90 32.2 69 20.6 50 50 NW 8 13 29.88 1012 10 16 0.00 0.00
2:54 pm 14:54 Mostly Cloudy 91 32.8 69 20.6 49 49 NW 12 19 29.89 1012 10 16 0.00 0.00
3:54 pm 15:54 Mostly Cloudy 92 33.3 69 20.6 47 47 VRB 5 7 29.86 1011 10 16 0.00 0.00
4:54 pm 16:54 Mostly Cloudy 92 33.3 69 20.6 47 47 VRB 6 9 29.85 1011 10 16 0.00 0.00
5:38 pm 17:38 Mostly Cloudy 93 33.9 69 20.6 46 46 NNW 5 7 29.84 1010 10 16 0.00 0.00
5:47 pm 17:47 Mostly Cloudy 92 33.3 69 20.6 47 47 N 5 7 29.85 1011 10 16 0.00 0.00
5:54 pm 17:54 Mostly Cloudy 88 31.1 70 21.1 55 55 NNE 13 20 29.85 1011 10 16 0.00 0.00
6:54 pm 18:54 Mostly Cloudy 83 28.3 69 20.6 63 63 ENE 6 9 29.86 1011 10 16 0.00 0.00
7:54 pm 19:54 Cloudy 84 28.9 68 20 59 59 NE 5 7 29.86 1011 10 16 0.00 0.00
8:35 pm 20:35 Cloudy with Heavy Rain 80 26.7 72 22.2 76 76 Calm 29.88 1012 2 3 0.02 0.51
8:38 pm 20:38 Cloudy with Heavy Rain 79 26.1 72 22.2 79 79 Calm 29.88 1012 2 2 0.05 1.27
8:51 pm 20:51 Cloudy with Light Rain 79 26 73 23 84 84 NNE 6 9 29.88 1012 3 5 0.13 3.30
8:54 pm 20:54 Cloudy 79 26.1 74 23.3 85 85 NNE 6 9 29.88 1012 7 11 0.13 3.30
9:36 pm 21:36 Cloudy with Thunderstorms 78 25.6 73 22.8 85 85 W 9 15 29.90 1013 8 13 0.00 0.00
9:45 pm 21:45 Cloudy with Thunderstorms 77 25 74 23.3 90 90 VRB 5 7 29.91 1013 4 6 0.02 0.51
9:52 pm 21:52 Cloudy with Strong Thunderstorms 77 25 73 23 89 89 SW 3 6 29.91 1013 1 2 0.06 1.52
9:54 pm 21:54 Cloudy with Strong Thunderstorms 77 25 73 22.8 88 88 Calm 29.91 1013 1 2 0.11 2.79
10:01 pm 22:01 Cloudy with Thunderstorms 77 25 73 22.8 88 88 ESE 3 6 29.91 1013 3 5 0.05 1.27
10:34 pm 22:34 Cloudy with Light Rain 77 25 73 22.8 88 88 Calm 29.91 1013 6 10 0.09 2.29
10:54 pm 22:54 Cloudy with Light Rain 77 25 74 23.3 90 90 Calm 29.91 1013 8 13 0.09 2.29
11:40 pm 23:40 Cloudy with Heavy Rain 77 25 73 22.8 88 88 ENE 7 11 29.89 1012 2 3 0.06 1.52
11:46 pm 23:46 Cloudy with Light Rain 77 25 73 22.8 88 88 E 5 7 29.89 1012 3 5 0.15 3.81
11:54 pm 23:54 Cloudy with Light Rain 76 24.4 73 22.8 91 91 ENE 9 15 29.90 1012 8 13 0.15 3.81

Powered by AerisWeather